VE3HOA Weather Reports


Display with metric or nautical units.
time (UTC)temp
F
wind
direction
speed
MPH
gust
MPH
rain 1hr
in
rain 24hr
in
rain mn
in
humidity
%
barometer
mb
20260504035049 48 197 4.0 11.0 0.00 0.00 0.00 63 1005.7
20260504034556 48 219 5.0 11.0 0.00 0.00 0.00 63 1005.7
20260504034053 49 250 5.0 10.0 0.00 0.00 0.00 62 1005.7
20260504033549 49 254 5.0 10.0 0.00 0.00 0.00 62 1005.6
20260504033049 49 218 4.0 10.0 0.00 0.00 0.00 62 1005.7
20260504032549 49 238 4.0 10.0 0.00 0.00 0.00 61 1005.7
20260504032049 49 231 4.0 10.0 0.00 0.00 0.00 61 1005.7
20260504031552 49 208 4.0 10.0 0.00 0.00 0.00 61 1005.8
20260504031048 49 200 4.0 8.0 0.00 0.00 0.00 61 1005.9
20260504030552 49 233 4.0 8.0 0.00 0.00 0.00 61 1005.8
20260504030051 49 231 3.0 11.0 0.00 0.00 0.00 60 1005.9
20260504025547 49 257 3.0 11.0 0.00 0.00 0.00 60 1005.9
20260504025048 49 238 5.0 14.0 0.00 0.00 0.00 60 1006.0
20260504024556 49 265 7.0 15.0 0.00 0.00 0.00 60 1006.1
20260504024050 49 281 6.0 15.0 0.00 0.00 0.00 60 1006.1
20260504023548 50 231 5.0 12.0 0.00 0.00 0.00 59 1006.2
20260504023052 50 283 5.0 15.0 0.00 0.00 0.00 58 1006.2
20260504022550 50 236 7.0 15.0 0.00 0.00 0.00 58 1006.1
20260504022049 50 241 3.0 11.0 0.00 0.00 0.00 57 1006.3
20260504021554 50 260 5.0 12.0 0.00 0.00 0.00 56 1006.4
20260504021052 50 239 7.0 12.0 0.00 0.00 0.00 56 1006.4
20260504020552 51 264 6.0 15.0 0.00 0.00 0.00 55 1006.4
20260504020122 51 245 6.0 17.0 0.00 0.00 0.00 54 1006.2
20260504015549 51 207 6.0 17.0 0.00 0.00 0.00 53 1006.1
20260504015048 51 210 7.0 17.0 0.00 0.00 0.00 52 1006.1
20260504014559 51 221 5.0 13.0 0.00 0.00 0.00 51 1006.1
20260504014049 51 213 6.0 13.0 0.00 0.00 0.00 50 1005.9
20260504013548 51 254 7.0 13.0 0.00 0.00 0.00 49 1005.9
20260504013111 51 153 6.0 11.0 0.00 0.00 0.00 49 1005.9
20260504012547 51 249 5.0 9.0 0.00 0.00 0.00 48 1005.9
20260504012049 51 212 3.0 9.0 0.00 0.00 0.00 47 1005.9
20260504011554 51 231 3.0 9.0 0.00 0.00 0.00 46 1005.8
20260504011048 51 212 3.0 7.0 0.00 0.00 0.00 46 1005.9
20260504010548 51 243 4.0 7.0 0.00 0.00 0.00 45 1005.8
20260504005549 52 211 4.0 11.0 0.00 0.00 0.00 45 1005.8
20260504005049 52 257 5.0 11.0 0.00 0.00 0.00 44 1005.7
20260504004626 52 265 3.0 7.0 0.00 0.00 0.00 44 1005.7
20260504004049 52 260 3.0 6.0 0.00 0.00 0.00 44 1005.6
20260504003548 52 271 3.0 9.0 0.00 0.00 0.00 44 1005.7
20260504003051 52 227 3.0 11.0 0.00 0.00 0.00 45 1005.7
20260504002548 52 257 5.0 11.0 0.00 0.00 0.00 44 1005.7
20260504002048 52 284 5.0 14.0 0.00 0.00 0.00 44 1005.7
20260504001555 52 285 5.0 15.0 0.00 0.00 0.00 44 1005.7
20260504001050 53 216 7.0 15.0 0.00 0.00 0.00 43 1005.7
20260504000548 53 257 9.0 14.0 0.00 0.00 0.00 42 1005.5
20260504000106 53 209 6.0 14.0 0.00 0.00 0.00 40 1005.6
20260503235551 53 260 3.0 9.0 0.00 0.00 0.00 39 1005.5
20260503235049 53 236 3.0 12.0 0.00 0.00 0.00 39 1005.6
20260503234549 54 219 4.0 14.0 0.00 0.00 0.00 38 1005.6
20260503234048 54 215 9.0 14.0 0.00 0.00 0.00 38 1005.6
20260503233549 54 244 5.0 12.0 0.00 0.00 0.00 38 1005.6
20260503233052 54 240 6.0 12.0 0.00 0.00 0.00 38 1005.7
20260503232548 54 211 6.0 12.0 0.00 0.00 0.00 37 1005.6
20260503232048 54 229 6.0 12.0 0.00 0.00 0.00 37 1005.5
20260503231556 54 269 5.0 12.0 0.00 0.00 0.00 36 1005.6
20260503231049 54 252 6.0 12.0 0.00 0.00 0.00 36 1005.5
20260503230550 55 258 5.0 14.0 0.00 0.00 0.00 35 1005.4
20260503230052 55 242 6.0 14.0 0.00 0.00 0.00 35 1005.5
20260503225548 55 278 6.0 12.0 0.00 0.00 0.00 35 1005.5
20260503225048 55 248 6.0 12.0 0.00 0.00 0.00 35 1005.5
20260503224558 55 308 3.0 12.0 0.00 0.00 0.00 34 1005.5
20260503224048 55 189 5.0 11.0 0.00 0.00 0.00 33 1005.4
20260503223547 56 245 7.0 11.0 0.00 0.00 0.00 32 1005.5
20260503223054 56 283 5.0 11.0 0.00 0.00 0.00 32 1005.5
20260503222548 56 232 5.0 11.0 0.00 0.00 0.00 31 1005.5
20260503222051 56 254 4.0 12.0 0.00 0.00 0.00 31 1005.4
20260503221601 56 288 6.0 12.0 0.00 0.00 0.00 30 1005.5
20260503221053 56 256 8.0 12.0 0.00 0.00 0.00 29 1005.5
20260503220549 56 281 6.0 12.0 0.00 0.00 0.00 30 1005.5
20260503220055 56 271 6.0 15.0 0.00 0.00 0.00 29 1005.5
20260503215548 57 227 8.0 15.0 0.00 0.00 0.00 27 1005.5
20260503215048 56 231 5.0 12.0 0.00 0.00 0.00 28 1005.4
20260503214551 57 249 6.0 12.0 0.00 0.00 0.00 27 1005.4
20260503214144 57 288 6.0 14.0 0.00 0.00 0.00 28 1005.6
20260503213551 57 291 6.0 16.0 0.00 0.00 0.00 28 1005.4
20260503213054 57 289 10.0 16.0 0.00 0.00 0.00 27 1005.5
20260503212550 57 303 9.0 16.0 0.00 0.00 0.00 28 1005.6
20260503212049 57 273 5.0 10.0 0.00 0.00 0.00 28 1005.4
20260503211556 56 257 3.0 15.0 0.00 0.00 0.00 29 1005.4
20260503211053 55 280 5.0 16.0 0.00 0.00 0.00 30 1005.5
20260503210550 55 248 9.0 16.0 0.00 0.00 0.00 29 1005.6
20260503210053 57 246 5.0 14.0 0.00 0.00 0.00 30 1005.6
20260503205550 57 263 8.0 16.0 0.00 0.00 0.00 29 1005.6
20260503205051 56 217 8.0 16.0 0.00 0.00 0.00 28 1005.5
20260503204619 55 152 5.0 15.0 0.00 0.00 0.00 29 1005.6
20260503204050 55 261 6.0 15.0 0.00 0.00 0.00 29 1005.6
20260503203549 56 264 8.0 15.0 0.00 0.00 0.00 29 1005.8
20260503203100 56 253 7.0 18.0 0.00 0.00 0.00 28 1005.7
20260503202553 56 271 8.0 18.0 0.00 0.00 0.00 29 1005.8
20260503202050 56 199 9.0 18.0 0.00 0.00 0.00 29 1005.8
20260503201552 56 247 5.0 18.0 0.00 0.00 0.00 29 1005.9
20260503201048 56 264 9.0 17.0 0.00 0.00 0.00 29 1006.0
20260503200548 55 284 8.0 17.0 0.00 0.00 0.00 30 1005.9
20260503200054 55 276 5.0 23.0 0.00 0.00 0.00 30 1006.0
20260503195547 55 258 11.0 23.0 0.00 0.00 0.00 29 1006.3
20260503195048 56 185 8.0 16.0 0.00 0.00 0.00 28 1006.2
20260503194555 56 257 8.0 16.0 0.00 0.00 0.00 28 1006.2
20260503194048 55 252 10.0 18.0 0.00 0.00 0.00 29 1006.5
20260503193548 55 257 5.0 20.0 0.00 0.00 0.00 30 1006.4
20260503193110 54 264 11.0 20.0 0.00 0.00 0.00 31 1006.7
20260503192547 55 200 5.0 18.0 0.00 0.00 0.00 34 1006.7
20260503192048 53 273 8.0 18.0 0.00 0.00 0.00 31 1006.9
20260503191610 53 110 6.0 15.0 0.00 0.00 0.00 31 1007.0
20260503191048 53 274 7.0 19.0 0.00 0.00 0.00 30 1007.1
20260503190548 54 278 9.0 19.0 0.00 0.00 0.00 30 1007.3
20260503190058 55 262 10.0 19.0 0.00 0.00 0.00 29 1007.1
20260503185549 55 234 6.0 19.0 0.00 0.00 0.00 31 1007.2
20260503185048 55 225 7.0 19.0 0.00 0.00 0.00 31 1007.2
20260503184553 54 238 6.0 17.0 0.00 0.00 0.00 30 1007.3
20260503184050 54 239 9.0 17.0 0.00 0.00 0.00 30 1007.3
20260503183549 53 240 8.0 17.0 0.00 0.00 0.00 32 1007.4
20260503183055 54 245 7.0 15.0 0.00 0.00 0.00 31 1007.6
20260503182547 54 305 8.0 14.0 0.00 0.00 0.00 32 1007.5
20260503182050 54 293 5.0 13.0 0.00 0.00 0.00 33 1007.5
20260503181554 53 212 7.0 16.0 0.00 0.00 0.00 31 1007.7
20260503181048 54 245 8.0 16.0 0.00 0.00 0.00 31 1007.7
20260503180550 54 250 7.0 14.0 0.00 0.00 0.00 33 1007.7
20260503180059 53 219 5.0 15.0 0.00 0.00 0.00 34 1007.8
20260503175549 52 222 8.0 20.0 0.00 0.00 0.00 33 1008.0
20260503175048 53 238 9.0 20.0 0.00 0.00 0.00 33 1008.1
20260503174556 53 246 9.0 20.0 0.00 0.00 0.00 32 1008.1
20260503174048 53 227 8.0 16.0 0.00 0.00 0.00 32 1008.2
20260503173548 52 269 7.0 17.0 0.00 0.00 0.00 34 1008.2
20260503173051 52 197 8.0 17.0 0.00 0.00 0.00 34 1008.3
20260503172547 52 268 5.0 16.0 0.00 0.00 0.00 34 1008.4
20260503172048 53 254 8.0 16.0 0.00 0.00 0.00 33 1008.6
20260503171553 52 245 5.0 15.0 0.00 0.00 0.00 37 1008.6
20260503171048 52 216 6.0 15.0 0.00 0.00 0.00 35 1008.7
20260503170548 52 151 6.0 17.0 0.00 0.00 0.00 33 1008.6
20260503170106 52 194 7.0 17.0 0.00 0.00 0.00 35 1008.9
20260503160108 49 278 7.0 13.0 0.00 0.00 0.00 37 1009.7
20260503150549 48 297 5.0 12.0 0.00 0.00 0.00 41 1010.3
20260503131050 43 290 4.0 9.0 0.00 0.00 0.00 57 1011.4
20260503130551 43 286 4.0 8.0 0.00 0.00 0.00 57 1011.5
20260503110546 36 243 1.0 2.0 0.00 0.00 0.00 73 1011.3
20260503081554 38 254 0.0 1.0 0.00 0.00 0.00 69 1011.3
20260503081048 38 240 1.0 2.0 0.00 0.00 0.00 69 1011.3
20260503080551 38 255 1.0 2.0 0.00 0.00 0.00 69 1011.3
20260503072548 38 280 1.0 4.0 0.00 0.00 0.00 67 1011.5
20260503072048 38 268 2.0 4.0 0.00 0.00 0.00 67 1011.4
20260503071611 38 260 1.0 3.0 0.00 0.00 0.00 67 1011.5
20260503071048 38 275 1.0 2.0 0.00 0.00 0.00 67 1011.4
20260503070548 38 262 1.0 2.0 0.00 0.00 0.00 67 1011.4
20260503055048 39 253 1.0 4.0 0.00 0.00 0.00 66 1011.9
20260503054609 39 269 1.0 4.0 0.00 0.00 0.00 66 1011.8
20260503054052 39 256 1.0 3.0 0.00 0.00 0.00 65 1011.9
20260503053549 39 246 1.0 3.0 0.00 0.00 0.00 65 1011.8
20260503053058 39 255 1.0 3.0 0.00 0.00 0.00 65 1011.9
20260503052548 39 283 1.0 3.0 0.00 0.00 0.00 65 1011.9
20260503052051 39 248 1.0 3.0 0.00 0.00 0.00 65 1012.0
20260503051552 39 246 1.0 3.0 0.00 0.00 0.00 66 1012.0
20260503051048 39 245 1.0 3.0 0.00 0.00 0.00 66 1012.0
20260503050548 39 252 1.0 3.0 0.00 0.00 0.00 66 1012.0
20260503050058 39 248 1.0 3.0 0.00 0.00 0.00 66 1012.1
20260503045548 39 259 2.0 3.0 0.00 0.00 0.00 66 1012.1
20260503045047 39 252 1.0 3.0 0.00 0.00 0.00 65 1012.2
20260503044554 39 270 1.0 3.0 0.00 0.00 0.00 66 1012.2
20260503044048 39 267 1.0 3.0 0.00 0.00 0.00 66 1012.2
20260503043548 39 277 1.0 3.0 0.00 0.00 0.00 66 1012.2
20260503043058 39 282 1.0 2.0 0.00 0.00 0.00 67 1012.2
20260503042550 39 264 1.0 2.0 0.00 0.00 0.00 67 1012.3
20260503042049 39 264 0.0 2.0 0.00 0.00 0.00 66 1012.3
20260503041559 39 275 0.0 2.0 0.00 0.00 0.00 65 1012.3
20260503041053 40 288 0.0 2.0 0.00 0.00 0.00 65 1012.3
20260503040548 40 273 0.0 3.0 0.00 0.00 0.00 65 1012.3
20260503040059 40 288 1.0 3.0 0.00 0.00 0.00 64 1012.2
20260503035548 40 299 1.0 3.0 0.00 0.00 0.00 64 1012.3